Theta_e
323 321 321 319 319 318 318 318 318 318 318 316 316 316 318 319 321 322 323 323 324 325 324 324 325 324 317 308 309 312 318 316 311 309 307 306 306 305 304 302 302 301 301 302 303 301 301
324 322 322 321 320 319 319 318 318 318 318 317 316 315 315 317 319 321 322 322 323 324 324 324 325 323 311 302 311 310 308 308 308 308 306 306 306 305 303 303 302 301 301 302 301 301 301
326 323 323 322 322 320 319 319 319 319 319 317 316 315 315 316 318 319 321 322 323 323 323 323 325 316 308 306 311 309 308 306 306 307 305 304 306 305 304 300 301 299 299 302 300 300 299
324 325 325 323 322 322 320 318 318 319 318 317 316 315 315 316 317 318 320 321 322 322 322 323 323 313 306 311 313 307 307 305 306 305 305 305 306 304 302 301 299 298 297 297 299 299 298
326 326 325 325 322 322 321 320 319 318 317 317 315 315 315 316 316 317 319 320 320 320 321 322 315 310 304 313 308 308 307 304 305 304 304 303 305 302 301 300 298 298 295 295 296 299 297
325 325 325 324 323 322 321 320 318 318 317 315 314 314 315 315 316 317 319 320 319 318 317 312 308 306 305 303 307 306 304 305 303 304 303 303 302 301 299 299 292 295 294 295 294 297 295
325 324 324 324 323 322 321 320 319 318 316 315 314 314 315 315 316 318 317 310 306 303 306 305 303 303 301 307 308 304 303 304 303 301 298 299 298 296 299 300 299 296 295 295 298 295 294
324 324 323 323 323 322 321 320 320 319 318 316 314 314 314 315 316 317 310 304 304 304 297 303 301 300 301 306 301 303 303 301 300 297 297 296 294 300 297 296 295 295 295 295 297 293 292
324 323 323 322 322 322 321 320 319 319 318 317 316 315 315 315 316 310 305 304 308 307 300 300 301 301 301 303 300 300 301 299 298 295 295 295 298 295 295 294 293 294 294 295 293 292 291
324 323 323 322 321 321 320 320 319 318 317 316 316 316 315 315 310 309 303 305 308 306 293 293 295 300 301 301 296 297 298 299 295 295 294 295 296 295 294 294 295 292 296 293 291 290 289
324 323 322 321 321 320 319 319 318 317 316 316 316 316 315 315 309 307 303 306 307 299 283 294 293 301 299 297 296 295 297 296 294 293 294 295 291 292 293 295 295 294 291 291 289 289 286
325 323 322 321 321 320 319 319 318 318 317 316 316 316 314 311 310 308 305 306 302 290 281 290 296 294 295 295 294 294 295 297 296 293 293 294 293 294 295 289 291 290 290 288 286 286 283
324 324 323 322 321 320 319 319 319 318 317 316 316 315 313 311 306 305 305 302 291 283 289 289 292 294 293 293 293 292 291 290 291 288 289 292 291 292 292 291 290 290 291 287 287 284 284
320 321 322 322 321 321 320 319 319 319 318 317 316 315 313 311 306 306 302 296 283 290 290 292 293 292 292 293 293 291 290 290 292 290 289 289 288 289 292 295 294 289 292 288 283 284 286
317 317 318 317 321 321 320 320 319 318 317 317 316 313 310 311 305 305 296 288 288 292 293 290 291 289 291 292 292 291 291 292 294 292 290 288 290 289 288 290 293 287 286 292 289 279 282
313 314 315 316 316 316 319 319 318 317 317 316 312 308 307 309 306 301 292 289 292 294 292 293 289 292 288 291 288 290 290 293 294 293 297 293 287 289 285 288 287 287 290 285 287 282 281
310 311 312 313 314 315 316 316 318 317 317 316 311 302 307 307 307 297 287 290 293 295 294 292 292 291 290 291 291 290 291 293 295 293 294 293 291 287 287 286 287 285 286 285 286 286 283
306 308 309 310 311 312 314 315 315 317 316 313 308 297 305 307 294 294 289 293 293 293 294 293 293 292 291 290 289 290 290 292 296 293 289 293 291 288 289 287 286 290 289 289 284 283 284
303 304 305 306 308 309 310 313 314 315 316 310 302 300 304 305 289 289 293 293 293 294 293 293 292 294 293 290 286 291 292 295 295 294 291 291 288 285 287 284 284 285 287 288 290 288 284
301 301 302 303 304 305 307 308 310 313 314 312 303 292 295 297 299 294 292 292 291 295 294 292 291 292 290 290 291 290 290 292 294 295 296 295 289 288 284 287 286 284 286 286 287 284 285
299 300 300 300 301 302 303 305 306 308 310 308 303 294 293 285 288 293 294 294 292 290 294 294 291 291 291 287 289 289 292 293 290 292 292 292 286 289 290 292 291 289 288 287 284 286 284
299 299 299 299 300 300 301 301 304 305 306 302 299 293 294 293 293 291 291 291 291 294 295 292 290 294 291 288 290 291 292 290 290 290 290 289 286 288 285 289 288 286 288 289 289 288 288
299 299 299 299 298 299 300 300 301 303 303 298 303 304 296 291 290 288 288 289 291 294 296 297 295 292 291 293 295 296 297 296 293 291 289 287 286 284 281 287 286 282 285 287 288 290 290
298 298 299 299 299 298 299 300 300 301 300 297 296 293 287 286 292 289 292 291 291 292 292 296 296 293 297 301 296 293 290 292 293 292 294 288 286 286 281 284 275 287 293 291 289 290 292
297 298 298 298 298 298 299 299 299 299 299 296 297 291 287 283 288 288 291 292 293 295 294 294 297 300 300 294 289 285 284 285 287 290 292 292 288 283 280 280 284 285 289 287 286 286 292
296 297 297 298 298 298 298 298 298 298 298 295 295 296 289 283 283 289 288 288 286 288 290 293 298 301 297 291 286 282 281 284 283 285 290 290 291 284 282 277 276 287 291 293 290 281 293
296 296 296 297 297 298 298 298 298 298 297 295 294 296 290 283 287 287 284 284 289 288 287 289 289 289 295 289 285 283 282 288 283 283 285 283 284 281 281 280 283 291 290 290 279 284 294
296 296 296 296 296 297 297 297 297 297 297 295 293 296 289 285 286 288 288 284 285 285 282 284 284 287 287 285 285 285 284 287 286 288 287 285 282 281 282 279 277 294 293 285 292 296 295
296 296 296 296 296 296 297 297 297 297 297 297 289 294 295 286 284 288 289 289 287 286 285 285 284 281 285 283 285 285 285 287 286 282 291 284 289 286 287 286 294 296 294 296 297 296 297
Wind_Speed
5 4 4 4 5 6 6 7 8 10 12 13 15 17 18 18 19 19 19 17 15 15 15 15 10 5 2 3 7 5 3 3 5 4 2 3 2 3 3 4 3 5 3 4 4 4 6
9 8 7 7 7 6 5 6 7 8 8 10 13 16 17 18 20 21 21 19 16 15 15 13 8 3 3 7 3 3 4 4 2 3 3 2 3 2 2 3 5 2 4 7 5 5 6
10 11 10 9 6 8 8 7 6 7 7 7 9 12 15 18 19 21 22 22 18 14 15 10 3 3 3 9 2 4 4 3 2 1 4 2 4 2 5 2 1 1 7 7 9 4 5
13 11 10 10 9 8 9 10 10 9 9 8 9 10 13 15 18 19 21 23 22 18 9 2 4 2 7 2 3 4 5 4 4 5 5 4 3 5 1 3 2 3 3 5 5 7 3
11 11 11 10 10 9 9 9 9 11 13 11 10 11 13 15 17 20 21 26 21 8 1 3 3 3 6 3 3 3 1 5 5 4 5 4 2 2 4 4 5 5 10 9 5 9 4
12 11 12 12 11 10 10 10 12 7 9 11 12 14 13 15 17 20 24 25 5 3 2 2 2 3 4 3 3 3 2 6 3 5 3 2 2 4 4 7 12 10 8 8 11 5 9
13 12 12 12 12 12 11 10 9 9 11 9 11 12 13 15 16 18 14 6 3 3 1 5 2 4 1 3 1 2 2 6 4 2 7 2 7 16 17 17 13 7 8 16 14 4 6
14 13 13 13 13 13 12 11 10 8 7 8 9 11 13 13 17 17 4 3 3 3 8 3 6 8 3 2 2 6 6 9 8 11 7 4 16 17 1 6 9 8 13 20 13 2 7
16 15 14 14 14 13 13 12 11 12 10 9 9 9 8 11 13 3 4 1 2 2 5 6 5 5 2 8 7 5 12 4 7 9 14 16 8 2 8 8 11 11 17 14 10 6 7
17 16 16 16 15 15 14 13 13 13 12 11 11 9 8 8 1 4 1 2 1 3 7 6 5 3 2 3 4 1 2 1 4 9 9 10 2 8 7 11 12 13 9 11 7 5 12
17 18 18 17 17 16 16 15 14 14 13 12 11 8 5 3 4 2 2 2 1 3 11 1 3 2 2 3 4 1 1 2 8 8 8 6 8 9 10 9 11 5 2 4 3 8 6
19 19 19 19 18 18 18 17 16 17 15 14 13 11 8 1 2 1 2 2 3 4 12 3 3 4 4 3 1 3 2 1 2 4 5 7 0 5 4 4 1 9 3 2 1 3 11
19 20 20 20 19 19 20 19 18 18 17 16 15 11 9 5 1 5 3 3 5 11 3 7 8 6 3 7 6 8 8 9 9 7 11 4 8 3 3 5 3 5 5 6 7 6 14
15 12 19 20 21 21 21 20 20 20 19 18 16 13 8 3 6 7 2 4 17 9 15 3 4 5 10 12 8 10 7 9 13 5 2 7 15 14 12 16 7 12 9 7 12 13 21
13 13 11 17 19 21 20 21 21 21 20 19 14 7 5 8 8 4 3 12 16 11 9 9 3 6 9 5 5 7 14 9 10 21 15 9 17 3 1 1 4 9 10 2 4 3 9
14 14 13 13 13 15 17 20 21 21 20 20 6 6 7 15 12 5 5 24 13 10 8 7 19 16 17 15 10 11 12 7 9 15 18 3 11 4 3 1 1 5 4 5 4 7 17
17 16 16 14 13 13 13 15 17 18 18 19 6 5 7 16 5 5 11 16 10 7 7 13 20 17 16 15 15 12 16 5 9 7 10 3 6 3 5 13 16 7 7 5 4 6 10
15 17 18 17 15 14 14 13 14 15 13 9 4 6 10 15 8 5 13 11 4 6 6 9 4 12 23 15 14 14 16 16 14 12 14 9 3 11 21 3 2 9 15 18 11 11 10
17 15 15 18 18 17 17 16 13 13 7 1 4 2 3 8 11 11 12 13 8 12 12 9 15 12 10 14 12 16 18 8 12 14 13 11 6 7 13 6 2 9 10 10 17 14 30
16 17 16 16 17 18 17 18 16 14 9 6 3 5 3 3 5 19 20 20 17 8 13 6 4 3 1 10 12 14 14 4 5 8 3 10 7 13 21 22 2 6 14 20 24 19 21
16 17 16 18 17 16 18 17 16 15 13 3 5 5 8 8 11 16 16 7 21 15 13 9 6 21 22 21 23 19 27 19 4 3 2 6 14 14 20 24 23 24 18 20 26 28 29
17 17 17 17 18 18 17 18 16 13 18 5 5 4 5 4 17 25 22 18 28 25 21 14 19 22 21 26 23 23 23 21 17 4 6 4 19 18 27 29 32 34 21 34 32 34 26
18 18 18 19 18 18 17 20 13 11 8 4 4 4 4 11 12 14 22 28 27 26 22 27 28 19 21 25 32 33 26 18 8 15 17 10 8 12 23 25 23 14 35 35 41 38 33
20 21 20 20 18 18 18 16 15 10 4 2 3 3 4 6 13 18 24 30 35 37 34 26 25 25 33 21 5 4 2 18 18 21 20 15 21 14 12 9 20 22 25 37 37 34 33
21 21 23 22 20 19 18 18 17 15 14 5 3 3 4 6 6 13 13 21 23 29 32 33 32 27 10 6 9 12 6 8 17 26 28 25 21 11 10 17 17 3 18 25 23 33 27
21 22 21 23 21 19 19 19 15 14 18 7 5 5 4 5 7 7 6 5 8 15 18 25 25 20 8 6 6 13 14 7 8 6 26 25 25 19 13 15 21 19 30 22 6 8 31
23 24 21 23 21 22 21 20 17 19 17 8 5 7 5 5 8 10 12 10 6 6 7 3 7 6 16 13 16 15 17 5 14 18 17 10 14 25 23 23 14 11 9 5 13 21 32
24 24 23 24 22 21 21 22 19 19 18 12 5 7 5 4 10 7 8 9 7 4 4 6 8 2 3 12 12 14 11 15 16 25 28 24 13 13 14 19 27 18 24 26 29 29 25
25 24 23 23 23 23 21 22 22 19 19 17 4 6 7 5 6 4 11 13 15 16 8 3 6 8 5 5 4 6 6 6 15 14 19 23 28 27 22 15 11 15 30 30 32 27 24
Wind_Direction
217 245 284 307 332 356 1 4 4 5 4 0 355 352 350 348 346 343 341 338 330 322 316 320 319 315 255 223 251 142 135 144 133 144 132 170 187 166 217 187 197 229 210 225 253 252 240
242 255 269 284 295 310 329 333 343 350 356 358 349 346 342 342 339 338 333 329 325 317 307 312 304 283 188 240 94 106 141 96 88 150 137 175 175 178 140 203 228 164 258 262 265 248 238
250 254 261 268 254 285 298 306 318 326 339 344 348 340 337 334 334 331 326 322 320 315 306 302 251 236 218 262 97 84 96 64 21 188 140 113 124 195 148 199 82 330 290 275 222 221 235
255 243 243 239 252 252 278 292 304 313 321 329 332 332 330 330 327 325 322 317 315 313 300 256 168 200 253 48 121 110 133 87 63 42 75 94 102 95 288 124 149 239 247 255 156 176 160
251 248 241 242 237 236 243 266 286 305 314 319 330 327 325 328 327 322 318 311 311 305 247 162 185 208 261 133 180 122 175 135 101 66 71 98 65 93 166 223 251 210 272 230 268 210 155
247 241 240 243 245 243 243 254 278 286 305 310 320 324 323 327 325 323 321 303 275 279 185 216 103 232 159 215 137 125 75 137 121 126 130 157 127 228 200 205 257 262 244 250 263 179 215
242 242 241 244 245 241 245 246 247 260 285 294 308 319 326 321 323 325 338 338 274 202 197 226 184 274 198 100 141 162 152 131 125 186 216 87 228 238 244 228 270 269 259 260 266 194 246
234 238 240 240 245 245 240 233 233 230 233 258 292 310 321 319 316 323 300 298 41 13 297 236 249 271 210 187 253 195 178 186 180 219 144 175 238 252 55 213 226 232 260 264 280 247 222
233 234 236 238 240 239 241 237 232 226 231 238 256 279 304 312 317 329 336 63 336 300 251 283 223 240 214 174 222 205 185 160 200 199 203 227 253 78 197 204 204 226 236 255 268 325 234
234 233 234 233 233 238 234 233 232 231 239 219 239 260 284 327 213 347 324 2 296 317 260 242 226 211 122 172 243 47 229 219 200 241 191 240 244 205 198 230 203 240 230 245 266 294 282
234 232 232 230 231 230 232 227 228 234 231 236 226 235 271 87 310 249 351 307 265 229 275 42 174 41 109 209 89 114 358 161 213 182 179 218 179 190 206 229 178 250 109 172 208 256 316
238 233 231 229 227 227 228 228 224 224 226 227 234 202 156 136 157 66 128 165 234 207 242 245 165 187 171 195 160 121 149 10 20 171 245 263 110 218 211 82 145 134 121 144 155 259 250
245 242 236 234 230 228 226 224 225 226 222 219 226 198 169 164 187 129 151 209 219 234 46 196 202 191 217 184 199 189 170 180 190 178 213 188 217 165 177 131 117 198 182 275 251 222 264
15 321 261 238 235 232 228 226 222 223 220 217 208 175 202 185 134 135 152 189 238 184 208 97 162 155 202 167 213 185 176 219 229 216 213 238 252 183 181 219 202 184 218 203 260 276 288
355 347 345 351 262 241 235 231 227 223 217 215 192 188 184 181 152 123 207 215 236 226 183 176 103 205 215 223 212 184 216 229 210 191 209 205 255 97 257 88 184 161 199 240 291 108 279
351 356 353 344 336 349 275 241 235 229 219 204 197 194 205 154 161 130 198 243 232 200 156 181 218 196 229 215 190 194 194 184 230 198 227 258 263 116 120 162 64 229 137 141 199 258 257
348 351 347 353 337 343 333 333 255 242 234 214 211 209 147 151 166 165 216 238 252 234 197 194 230 239 235 237 215 217 240 203 198 197 206 199 216 175 153 205 189 169 203 227 314 228 254
335 345 350 346 346 349 330 333 342 281 238 188 227 221 159 147 181 204 225 233 206 245 242 260 237 252 243 225 236 235 242 225 177 159 169 207 207 233 238 135 316 256 231 214 222 223 237
325 324 328 337 340 347 350 337 317 335 284 159 224 151 212 184 186 209 224 239 268 230 229 212 231 219 212 234 236 234 243 189 175 173 171 169 206 240 254 207 177 213 207 233 243 260 247
320 323 317 317 326 333 343 345 343 335 340 237 237 197 166 231 268 219 218 225 229 207 243 232 286 36 206 241 233 253 248 200 198 208 351 176 171 215 238 252 95 187 228 221 223 234 252
316 316 321 319 311 306 319 328 342 333 342 287 207 216 169 180 235 236 226 227 238 240 226 205 220 223 233 248 247 252 260 249 190 175 219 184 233 236 250 262 275 278 269 250 233 243 243
299 298 303 306 318 317 310 303 315 331 339 254 263 162 172 207 220 217 222 220 229 239 229 229 225 230 231 241 243 259 244 248 236 193 213 204 243 247 252 262 263 257 260 261 266 257 251
305 303 299 298 295 298 305 309 298 313 357 292 325 267 246 176 192 207 222 225 230 236 240 236 233 234 232 226 226 241 252 258 191 231 227 210 222 217 239 231 251 254 240 249 257 262 256
293 293 291 288 294 288 292 290 304 308 297 283 320 327 278 290 235 224 223 214 223 229 228 233 232 232 237 247 294 324 298 246 239 227 226 240 225 229 248 229 229 233 243 237 244 251 257
289 291 290 291 292 291 289 295 289 274 274 286 280 271 282 272 280 296 290 255 250 238 241 243 240 238 258 191 239 249 228 228 226 227 225 218 230 235 231 219 242 170 234 225 225 246 257
284 290 289 291 288 284 284 287 281 278 281 274 248 238 252 288 242 280 283 297 288 255 260 246 254 254 216 224 202 232 233 199 199 217 220 224 228 230 223 230 233 231 236 239 78 247 248
289 286 283 287 287 281 277 275 275 267 270 259 255 258 241 263 260 260 272 282 318 321 307 325 309 231 210 224 236 242 245 209 230 224 222 197 214 227 236 245 246 219 207 111 192 240 245
286 286 283 278 281 280 275 273 271 265 260 264 256 217 221 275 277 247 259 271 299 286 285 4 342 358 224 226 230 226 238 227 232 232 225 220 203 211 230 242 248 217 226 220 236 240 241
279 283 282 278 271 274 274 269 266 261 263 254 248 233 221 228 273 256 261 259 263 261 273 207 306 322 295 304 350 320 295 215 198 226 217 230 226 235 220 230 238 210 222 225 241 251 252